Fort Smith, AR

8:52 PM CDT on September 23, 2017 (GMT -0500)
Fort Smith Regional

Weather History for KFSM - January, 2014

Change the Weather History Date:

Tuesday, January 21, 2014

  Actual Average Record
Temperature  
Mean Temperature 35 °F 40 °F  
Max Temperature 49 °F 50 °F 76 °F (1999)
Min Temperature 21 °F 29 °F -1 °F (1930)
Degree Days  
Heating Degree Days 30 25  
Month to date heating degree days 560 545  
Since 1 July heating degree days 1947 1844  
Moisture  
Dew Point 9 °F    
Average Humidity 38    
Maximum Humidity 50    
Minimum Humidity 25    
Precipitation  
Precipitation 0.00 in 0.09 in 2.79 in (1904)
Month to date precipitation 0.79 1.87  
Year to date precipitation 0.79 1.87  
Sea Level Pressure  
Sea Level Pressure 30.32 in    
Wind  
Wind Speed 10 mph (WNW)    
Max Wind Speed 26 mph    
Max Gust Speed 35 mph    
Visibility 10 miles    
Events      
T = Trace of Precipitation, MM = Missing Value Source: NWS Daily Summary

Daily Weather History Graph

Daily Weather History Graph

Search for Another Location

Airport or City:

Trip Planner

Search our weather history database for the weather conditions in past years. The results will help you decide how hot, cold, wet, or windy it might be!

Date:

Astronomy

Jan. 21, 2014 Rise Set
Actual Time 7:23 AM CST 5:34 PM CST
Civil Twilight 6:56 AM CST 6:01 PM CST
Nautical Twilight 6:25 AM CST 6:32 PM CST
Astronomical Twilight 5:55 AM CST 7:03 PM CST
Moon 10:54 PM CST (1/21) 10:06 AM CST (1/21)
Length of Visible Light 11h 05m
Length of Day
10h 10m
Waning Gibbous, 74% of the Moon is Illuminated
Jan 21
Waning Gibbous
Jan 23
Last Quarter
Jan 30
New
Feb 6
First Quarter
Feb 14
Full

Hourly Weather History & Observations

Time (CST) Temp. Windchill Dew Point Humidity Pressure Visibility Wind Dir Wind Speed Gust Speed Precip Events Conditions
12:53 AM 46.9 °F - 21.9 °F 37% 30.18 in 10.0 mi NW 11.5 mph 19.6 mph N/A   Clear
1:53 AM 44.1 °F 36.5 °F 19.0 °F 37% 30.19 in 10.0 mi NW 17.3 mph 28.8 mph N/A   Clear
2:53 AM 39.0 °F 29.6 °F 14.0 °F 36% 30.25 in 10.0 mi NNW 18.4 mph 25.3 mph N/A   Clear
3:53 AM 36.0 °F 26.0 °F 12.9 °F 39% 30.28 in 10.0 mi NNW 17.3 mph 25.3 mph N/A   Clear
4:53 AM 32.0 °F 20.8 °F 12.0 °F 44% 30.30 in 10.0 mi NW 17.3 mph 25.3 mph N/A   Clear
5:53 AM 28.0 °F 18.1 °F 10.0 °F 47% 30.34 in 10.0 mi NNW 11.5 mph 26.5 mph N/A   Clear
6:53 AM 25.0 °F 10.9 °F 9.0 °F 51% 30.38 in 10.0 mi NW 19.6 mph 27.6 mph N/A   Clear
7:53 AM 24.1 °F 11.0 °F 9.0 °F 53% 30.42 in 10.0 mi NNW 16.1 mph 26.5 mph N/A   Clear
8:53 AM 24.1 °F 11.0 °F 9.0 °F 53% 30.44 in 10.0 mi NW 16.1 mph 21.9 mph N/A   Clear
9:53 AM 26.1 °F 15.6 °F 8.1 °F 47% 30.45 in 10.0 mi NNW 11.5 mph - N/A   Clear
10:53 AM 28.0 °F 19.3 °F 8.1 °F 43% 30.45 in 10.0 mi NW 9.2 mph - N/A   Clear
11:53 AM 30.0 °F 21.1 °F 6.1 °F 36% 30.43 in 10.0 mi WNW 10.4 mph 16.1 mph N/A   Clear
12:53 PM 32.0 °F 24.2 °F 6.1 °F 34% 30.39 in 10.0 mi WNW 9.2 mph 16.1 mph N/A   Clear
1:53 PM 32.0 °F 28.7 °F 3.9 °F 31% 30.35 in 10.0 mi WNW 3.5 mph - N/A   Clear
2:53 PM 34.0 °F 28.0 °F 3.0 °F 27% 30.32 in 10.0 mi Variable 6.9 mph - N/A   Clear
3:53 PM 35.1 °F 29.3 °F 3.0 °F 26% 30.31 in 10.0 mi WNW 6.9 mph - N/A   Clear
4:53 PM 34.0 °F 29.8 °F 1.0 °F 25% 30.28 in 10.0 mi West 4.6 mph - N/A   Clear
5:53 PM 28.9 °F 21.1 °F 8.1 °F 41% 30.28 in 10.0 mi West 8.1 mph - N/A   Clear
6:53 PM 28.0 °F 22.8 °F 9.0 °F 45% 30.27 in 10.0 mi WSW 4.6 mph - N/A   Clear
7:53 PM 27.0 °F 21.6 °F 9.0 °F 47% 30.27 in 10.0 mi SW 4.6 mph - N/A   Clear
8:53 PM 27.0 °F 23.0 °F 10.9 °F 51% 30.27 in 10.0 mi WSW 3.5 mph - N/A   Clear
9:53 PM 27.0 °F - 10.0 °F 49% 30.27 in 10.0 mi Calm Calm - N/A   Clear
10:53 PM 26.1 °F - 10.0 °F 51% 30.25 in 10.0 mi Calm Calm - N/A   Clear
11:53 PM 21.9 °F - 10.9 °F 63% 30.23 in 10.0 mi Calm Calm - N/A   Clear